Regional Weather Roundup
Issued by NWS

Home | Current Version | Previous Version | Graphics & Text | Print | Product List | Glossary On
Versions: 1 2 3 4 5 6 7 8 9 10 11 12 13 14 15 16 17 18 19 20 21 22 23 24 25 26 27 28 29 30 31 32 33 34 35 36 37 38 39 40 41 42 43 44 45 46 47 48 49 50
000
ASUS44 KMEG 242010
RWRTN
TENNESSEE HOURLY STATE WEATHER ROUNDUP
NATIONAL WEATHER SERVICE MEMPHIS TN
300 PM CDT FRI OCT 24 2014

TNZ002-004-019-021-049-052-054-088>092-242100-
WEST TENNESSEE

CITY           SKY/WX    TMP DP  RH WIND       PRES   REMARKS
MEMPHIS INTL   MOSUNNY   74  51  44 VRB5      30.09F
NWS MEMPHIS      N/A     74 N/A N/A MISG        N/A
JACKSON        SUNNY     72  52  49 NW7       30.08F
DYERSBURG      MOSUNNY   70  46  43 NW6       30.09F
UNION CITY     PTSUNNY   70  54  56 VRB7      30.06F
PARIS          MOSUNNY   66  52  59 VRB5      30.08F
HUNTINGDON     MOSUNNY   68  51  54 NW8       30.07F
LEXINGTON      SUNNY     72  48  43 W3        30.07F
SAVANNAH       SUNNY     72  45  37 N3        30.09S
$$

TNZ008-025-027-028-033-062-065-066-242100-
NORTH MIDDLE TENNESSEE

CITY           SKY/WX    TMP DP  RH WIND       PRES   REMARKS
NASHVILLE      MOSUNNY   69  43  38 CALM      30.07F
CLARKSVILLE    PTSUNNY   68  44  42 NW3       30.07F
SMYRNA         SUNNY     69  43  39 NW7       30.08F
COOKEVILLE     SUNNY     68  39  34 N5        30.06F
CROSSVILLE     SUNNY     67  28  23 NW6       30.06F
$$

TNZ061-075-076-078-094-096-097-242100-
SOUTH MIDDLE TENNESSEE

CITY           SKY/WX    TMP DP  RH WIND       PRES   REMARKS
FAYETTEVILLE   SUNNY     66  39  37 VRB7      30.07S
TULLAHOMA      SUNNY     66  37  34 N8        30.08S
WINCHESTER     SUNNY     68  41  37 N5        30.06F
MCMINNVILLE    SUNNY     68  43  40 CALM      30.07S
COLUMBIA       SUNNY     72  43  35 N3        30.06F
SHELBYVILLE    SUNNY     70  39  32 N6        30.08F
$$

TNZ017-018-042-046-047-242100-
NORTHEAST TENNESSEE

CITY           SKY/WX    TMP DP  RH WIND       PRES   REMARKS
TRI CITIES     PTSUNNY   64  39  39 VRB3      30.05F
ELIZABETHTON   CLEAR     61  41  48 W9        30.04S
$$

TNZ012-013-036-069-073-074-242100-
CENTRAL EAST TENNESSEE

CITY           SKY/WX    TMP DP  RH WIND       PRES   REMARKS
KNOXVILLE      MOSUNNY   66  41  40 N7        30.04F
OAK RIDGE      MOSUNNY   68  45  43 CALM      30.05F
GATLINBURG     CLEAR     64  39  39 CALM      30.04F
MORRISTOWN     CLEAR     64  43  45 CALM      30.06F
$$

TNZ083-085-099-242100-
SOUTHEAST TENNESSEE

CITY           SKY/WX    TMP DP  RH WIND       PRES   REMARKS
CHATTANOOGA    MOSUNNY   71  43  36 VRB5      30.04F
$$

SKY/WX REPORTED AS FAIR MEANS FEW OR NO CLOUDS BELOW
12 THOUSAND FEET.




USA.gov is the U.S. government's official web portal to all federal, state and local government web resources and services.